Regional Weather Roundup
Issued by NWS Kansas City/Pleasant Hill, MO

Home | Current Version | Previous Version | Text Only | Print | Product List | Glossary On
Versions: 1 2 3 4 5 6 7 8 9 10 11 12 13 14 15 16 17 18 19 20 21 22 23 24 25 26 27 28 29 30 31 32 33 34 35 36 37 38 39 40 41 42 43 44 45 46 47 48 49 50
000
ASUS43 KEAX 280904
RWREAX

WEATHER ROUNDUP FOR EASTERN KANSAS AND NORTHWEST MISSOURI
NATIONAL WEATHER SERVICE KANSAS CITY/PLEASANT HILL MO
400 AM CDT MON JUL 28 2014

KSZ040-057-103>105-MOZ028-029-037-043-281000-
...KANSAS CITY METROPOLITAN AREA...

CITY           SKY/WX    TMP DP  RH WIND       PRES   REMARKS
K.C. INTL      CLEAR     61  57  87 NW6       30.15S
K.C. DOWNTOWN  CLEAR     66  58  75 N3        30.14S
LEES SUMMIT    CLEAR     65  57  75 N9        30.15R
OLATHE - IXD   CLEAR     62  58  86 NW7       30.16S
OLATHE - OJC   CLEAR     64  58  80 NW3       30.15R
LAWRENCE       CLEAR     61  57  87 NW8       30.16S

$$

MOZ001>008-011>017-020>025-030>033-038>040-044>046-053-054-281000-
...NORTHERN AND CENTRAL MISSOURI...

CITY           SKY/WX    TMP DP  RH WIND       PRES   REMARKS
ST. JOSEPH     CLEAR     60  56  86 N3        30.17R
MOSBY          SUNNY     61  57  88 NW5       30.14R
WHITEMAN AFB   CLEAR     62  49  62 N7        30.11S
CLINTON        CLEAR     61  57  88 CALM      30.13S
SEDALIA        CLEAR     64  57  78 NW8       30.11S
WARSAW         NOT AVBL
MARSHALL       CLEAR     64  59  82 NW6       30.12S
CHILLICOTHE      N/A     65  56  72 VRB5      30.13S
KIRKSVILLE     CLEAR     62  57  83 NW8       30.10R

$$

MOZ041-047>049-056>058-063>065-088>090-097-281000-
...EASTERN AND SOUTHERN MISSOURI...

CITY           SKY/WX    TMP DP  RH WIND       PRES   REMARKS
ST. LOUIS INTL CLEAR     67  59  75 W6        30.02R
SPIRIT OF STL  CLEAR     66  58  75 NW8       30.02R
COLUMBIA       CLEAR     64  57  78 NW8       30.08S
JEFFERSON CITY CLEAR     65  57  75 NW5       30.07S
HANNIBAL       CLEAR     64  57  77 NW6       30.06R
ROLLA          CLEAR     63  55  75 NW7       30.06S
LEBANON        CLEAR     64  57  77 NW5       30.11S
OSAGE BEACH    CLEAR     64  55  72 N5        30.10R
SPRINGFIELD    CLEAR     64  58  80 N8        30.12R
BRANSON        CLEAR     66  57  72 NW6       30.13R
NEVADA         CLEAR     61  57  88 NW5       30.16R
JOPLIN         CLEAR     65  58  78 N5        30.15R
WEST PLAINS    CLEAR     66  57  72 N6        30.09R

$$

IAZ060-094-KSZ022-034>040-054-083-096-NEZ052-066-093-281000-
...KANSAS...SOUTHEAST NEBRASKA AND IOWA...

CITY           SKY/WX    TMP DP  RH WIND       PRES   REMARKS
TOPEKA         CLEAR     63  58  83 N5        30.18R
MANHATTAN      CLEAR     64  57  78 N3        30.19R
EMPORIA        CLEAR     62  58  86 CALM      30.18R
CHANUTE        CLEAR     62  57  83 NW5       30.16R
WICHITA        PTCLDY    69  57  65 NE8       30.18S
OMAHA          CLEAR     61  55  81 N8        30.21R
LINCOLN        CLEAR     57  53  86 N3        30.24R
LAMONI         CLEAR     58  56  93 NW7       30.14S
DES MOINES     MOCLDY    63  58  83 N10       30.12S

$$




USA.gov is the U.S. government's official web portal to all federal, state and local government web resources and services.